<?xml version="1.0" encoding="UTF-8" standalone="no" ?>
<gpx xmlns="http://www.topografix.com/GPX/1/1" xmlns:xsi="http://www.w3.org/2001/XMLSchema-instance" xsi:schemaLocation="http://www.topografix.com/GPX/1/1 http://www.topografix.com/GPX/1/1/gpx.xsd" version="1.1" creator="VisuGPX - https://www.visugpx.com">
  <metadata>
    <name>Etangs de Geneste le 15 septembre2020</name>
    <desc><![CDATA[Etangs de Geneste le 15 septembre2020]]></desc>
  </metadata>
  <trk>
    <name><![CDATA[Etangs de Geneste]]></name>
    <extensions>
      <line xmlns="http://www.topografix.com/GPX/gpx_style/0/2">
        <color>0000FF</color>
        <width>4</width>
      </line>
    </extensions>
    <trkseg>
      <trkpt lat="48.77482" lon="2.12601">
        <ele>106.7</ele>
      </trkpt>
      <trkpt lat="48.7754" lon="2.12349">
        <ele>107.5</ele>
      </trkpt>
      <trkpt lat="48.77608" lon="2.12227">
        <ele>107.1</ele>
      </trkpt>
      <trkpt lat="48.77667" lon="2.12033">
        <ele>110</ele>
      </trkpt>
      <trkpt lat="48.77681" lon="2.11928">
        <ele>108.50390625</ele>
      </trkpt>
      <trkpt lat="48.77676" lon="2.11773">
        <ele>109.5234375</ele>
      </trkpt>
      <trkpt lat="48.77745" lon="2.1176">
        <ele>109.5</ele>
        <time>2010-01-01T00:00:00Z</time>
      </trkpt>
      <trkpt lat="48.77745" lon="2.11745">
        <ele>110</ele>
        <time>2010-01-01T00:00:00Z</time>
      </trkpt>
      <trkpt lat="48.77745" lon="2.11743">
        <ele>110</ele>
        <time>2010-01-01T00:00:00Z</time>
      </trkpt>
      <trkpt lat="48.77741" lon="2.11716">
        <ele>110.1953125</ele>
        <time>2010-01-01T00:00:00Z</time>
      </trkpt>
      <trkpt lat="48.77739" lon="2.11698">
        <ele>110.19140625</ele>
        <time>2010-01-01T00:00:00Z</time>
      </trkpt>
      <trkpt lat="48.77737" lon="2.11663">
        <ele>110.046875</ele>
        <time>2010-01-01T00:00:00Z</time>
      </trkpt>
      <trkpt lat="48.77735" lon="2.11648">
        <ele>109.9140625</ele>
        <time>2010-01-01T00:00:00Z</time>
      </trkpt>
      <trkpt lat="48.77732" lon="2.11635">
        <ele>109.85546875</ele>
        <time>2010-01-01T00:00:00Z</time>
      </trkpt>
      <trkpt lat="48.77703" lon="2.11555">
        <ele>109.41015625</ele>
        <time>2010-01-01T00:00:00Z</time>
      </trkpt>
      <trkpt lat="48.777" lon="2.11548">
        <ele>109.30859375</ele>
        <time>2010-01-01T00:00:00Z</time>
      </trkpt>
      <trkpt lat="48.77696" lon="2.11533">
        <ele>109.09375</ele>
        <time>2010-01-01T00:00:00Z</time>
      </trkpt>
      <trkpt lat="48.77694" lon="2.11522">
        <ele>108.97265625</ele>
        <time>2010-01-01T00:00:00Z</time>
      </trkpt>
      <trkpt lat="48.77691" lon="2.11509">
        <ele>108.8671875</ele>
        <time>2010-01-01T00:00:00Z</time>
      </trkpt>
      <trkpt lat="48.77688" lon="2.11481">
        <ele>108.7578125</ele>
        <time>2010-01-01T00:00:00Z</time>
      </trkpt>
      <trkpt lat="48.77688" lon="2.11466">
        <ele>108.7578125</ele>
        <time>2010-01-01T00:00:00Z</time>
      </trkpt>
      <trkpt lat="48.77689" lon="2.11451">
        <ele>108.79296875</ele>
        <time>2010-01-01T00:00:00Z</time>
      </trkpt>
      <trkpt lat="48.77692" lon="2.1144">
        <ele>108.90234375</ele>
        <time>2010-01-01T00:00:00Z</time>
      </trkpt>
      <trkpt lat="48.77699" lon="2.1142">
        <ele>109.21875</ele>
        <time>2010-01-01T00:00:00Z</time>
      </trkpt>
      <trkpt lat="48.77706" lon="2.11399">
        <ele>109.21875</ele>
        <time>2010-01-01T00:00:00Z</time>
      </trkpt>
      <trkpt lat="48.77706" lon="2.11394">
        <ele>109.21875</ele>
        <time>2010-01-01T00:00:00Z</time>
      </trkpt>
      <trkpt lat="48.77706" lon="2.11394">
        <ele>109.21875</ele>
        <time>2010-01-01T00:00:00Z</time>
      </trkpt>
      <trkpt lat="48.77706" lon="2.11381">
        <ele>109.21875</ele>
        <time>2010-01-01T00:00:00Z</time>
      </trkpt>
      <trkpt lat="48.77703" lon="2.11359">
        <ele>108.89453125</ele>
        <time>2010-01-01T00:00:00Z</time>
      </trkpt>
      <trkpt lat="48.77703" lon="2.11345">
        <ele>108.89453125</ele>
        <time>2010-01-01T00:00:00Z</time>
      </trkpt>
      <trkpt lat="48.77706" lon="2.11314">
        <ele>109.2421875</ele>
        <time>2010-01-01T00:00:00Z</time>
      </trkpt>
      <trkpt lat="48.77708" lon="2.113">
        <ele>109.70703125</ele>
        <time>2010-01-01T00:00:00Z</time>
      </trkpt>
      <trkpt lat="48.77712" lon="2.1127">
        <ele>110.48828125</ele>
        <time>2010-01-01T00:00:00Z</time>
      </trkpt>
      <trkpt lat="48.77712" lon="2.1124">
        <ele>110.48828125</ele>
        <time>2010-01-01T00:00:00Z</time>
      </trkpt>
      <trkpt lat="48.77711" lon="2.11224">
        <ele>110.34375</ele>
        <time>2010-01-01T00:00:00Z</time>
      </trkpt>
      <trkpt lat="48.77701" lon="2.11161">
        <ele>108.90625</ele>
        <time>2010-01-01T00:00:00Z</time>
      </trkpt>
      <trkpt lat="48.77691" lon="2.11112">
        <ele>109.0234375</ele>
        <time>2010-01-01T00:00:00Z</time>
      </trkpt>
      <trkpt lat="48.77687" lon="2.11095">
        <ele>109.12890625</ele>
        <time>2010-01-01T00:00:00Z</time>
      </trkpt>
      <trkpt lat="48.77677" lon="2.1107">
        <ele>108.390625</ele>
        <time>2010-01-01T00:00:00Z</time>
      </trkpt>
      <trkpt lat="48.77663" lon="2.11026">
        <ele>109.80859375</ele>
        <time>2010-01-01T00:00:00Z</time>
      </trkpt>
      <trkpt lat="48.77655" lon="2.11005">
        <ele>110.7890625</ele>
        <time>2010-01-01T00:00:00Z</time>
      </trkpt>
      <trkpt lat="48.77652" lon="2.10997">
        <ele>110.90234375</ele>
        <time>2010-01-01T00:00:00Z</time>
      </trkpt>
      <trkpt lat="48.77648" lon="2.10985">
        <ele>110.89453125</ele>
        <time>2010-01-01T00:00:00Z</time>
      </trkpt>
      <trkpt lat="48.77646" lon="2.10979">
        <ele>110.83203125</ele>
        <time>2010-01-01T00:00:00Z</time>
      </trkpt>
      <trkpt lat="48.77613" lon="2.10892">
        <ele>111.375</ele>
        <time>2010-01-01T00:00:00Z</time>
      </trkpt>
      <trkpt lat="48.77581" lon="2.10814">
        <ele>113.06640625</ele>
        <time>2010-01-01T00:00:00Z</time>
      </trkpt>
      <trkpt lat="48.77569" lon="2.10788">
        <ele>113.48046875</ele>
        <time>2010-01-01T00:00:00Z</time>
      </trkpt>
      <trkpt lat="48.77563" lon="2.10768">
        <ele>113.984375</ele>
        <time>2010-01-01T00:00:00Z</time>
      </trkpt>
      <trkpt lat="48.77542" lon="2.10711">
        <ele>113.10546875</ele>
        <time>2010-01-01T00:00:00Z</time>
      </trkpt>
      <trkpt lat="48.77539" lon="2.10674">
        <ele>114.8</ele>
        <time>2010-01-01T00:00:00Z</time>
      </trkpt>
      <trkpt lat="48.77544" lon="2.10651">
        <ele>113.7</ele>
        <time>2010-01-01T00:00:00Z</time>
      </trkpt>
      <trkpt lat="48.77557" lon="2.10634">
        <ele>114</ele>
        <time>2010-01-01T00:00:00Z</time>
      </trkpt>
      <trkpt lat="48.77564" lon="2.1061">
        <ele>113.33203125</ele>
        <time>2010-01-01T00:00:00Z</time>
      </trkpt>
      <trkpt lat="48.77574" lon="2.1059">
        <ele>113.16015625</ele>
        <time>2010-01-01T00:00:00Z</time>
      </trkpt>
      <trkpt lat="48.77584" lon="2.10571">
        <ele>113.234375</ele>
        <time>2010-01-01T00:00:00Z</time>
      </trkpt>
      <trkpt lat="48.77595" lon="2.10539">
        <ele>113.66015625</ele>
        <time>2010-01-01T00:00:00Z</time>
      </trkpt>
      <trkpt lat="48.77601" lon="2.1052">
        <ele>113.41796875</ele>
        <time>2010-01-01T00:00:00Z</time>
      </trkpt>
      <trkpt lat="48.77608" lon="2.10489">
        <ele>112.9453125</ele>
        <time>2010-01-01T00:00:00Z</time>
      </trkpt>
      <trkpt lat="48.77616" lon="2.10456">
        <ele>113.18359375</ele>
        <time>2010-01-01T00:00:00Z</time>
      </trkpt>
      <trkpt lat="48.77621" lon="2.10408">
        <ele>113.82421875</ele>
        <time>2010-01-01T00:00:00Z</time>
      </trkpt>
      <trkpt lat="48.77623" lon="2.10382">
        <ele>114.08203125</ele>
        <time>2010-01-01T00:00:00Z</time>
      </trkpt>
      <trkpt lat="48.77627" lon="2.10346">
        <ele>114.28125</ele>
        <time>2010-01-01T00:00:00Z</time>
      </trkpt>
      <trkpt lat="48.77627" lon="2.10332">
        <ele>114.2421875</ele>
        <time>2010-01-01T00:00:00Z</time>
      </trkpt>
      <trkpt lat="48.77627" lon="2.10319">
        <ele>114.2421875</ele>
        <time>2010-01-01T00:00:00Z</time>
      </trkpt>
      <trkpt lat="48.77627" lon="2.10306">
        <ele>114.03515625</ele>
        <time>2010-01-01T00:00:00Z</time>
      </trkpt>
      <trkpt lat="48.77622" lon="2.10265">
        <ele>113.140625</ele>
        <time>2010-01-01T00:00:00Z</time>
      </trkpt>
      <trkpt lat="48.77619" lon="2.10249">
        <ele>112.81640625</ele>
        <time>2010-01-01T00:00:00Z</time>
      </trkpt>
      <trkpt lat="48.77618" lon="2.10232">
        <ele>112.70703125</ele>
        <time>2010-01-01T00:00:00Z</time>
      </trkpt>
      <trkpt lat="48.77617" lon="2.10216">
        <ele>112.6015625</ele>
        <time>2010-01-01T00:00:00Z</time>
      </trkpt>
      <trkpt lat="48.77617" lon="2.10201">
        <ele>112.6015625</ele>
        <time>2010-01-01T00:00:00Z</time>
      </trkpt>
      <trkpt lat="48.77617" lon="2.10186">
        <ele>112.6015625</ele>
        <time>2010-01-01T00:00:00Z</time>
      </trkpt>
      <trkpt lat="48.77623" lon="2.1012">
        <ele>113.21875</ele>
        <time>2010-01-01T00:00:00Z</time>
      </trkpt>
      <trkpt lat="48.77623" lon="2.101">
        <ele>112.91796875</ele>
        <time>2010-01-01T00:00:00Z</time>
      </trkpt>
      <trkpt lat="48.77629" lon="2.10055">
        <ele>114.6</ele>
        <time>2010-01-01T00:00:00Z</time>
      </trkpt>
      <trkpt lat="48.7766" lon="2.10025">
        <ele>114.3</ele>
      </trkpt>
      <trkpt lat="48.77722" lon="2.1002">
        <ele>120.9375</ele>
        <time>2010-01-01T00:00:00Z</time>
      </trkpt>
      <trkpt lat="48.77739" lon="2.10021">
        <ele>122.11328125</ele>
        <time>2010-01-01T00:00:00Z</time>
      </trkpt>
      <trkpt lat="48.7775" lon="2.10022">
        <ele>122.9765625</ele>
        <time>2010-01-01T00:00:00Z</time>
      </trkpt>
      <trkpt lat="48.77768" lon="2.10024">
        <ele>123.05078125</ele>
        <time>2010-01-01T00:00:00Z</time>
      </trkpt>
      <trkpt lat="48.77777" lon="2.10025">
        <ele>123.046875</ele>
        <time>2010-01-01T00:00:00Z</time>
      </trkpt>
      <trkpt lat="48.77786" lon="2.10023">
        <ele>122.2890625</ele>
        <time>2010-01-01T00:00:00Z</time>
      </trkpt>
      <trkpt lat="48.77792" lon="2.10021">
        <ele>121.625</ele>
        <time>2010-01-01T00:00:00Z</time>
      </trkpt>
      <trkpt lat="48.77798" lon="2.10018">
        <ele>120.76171875</ele>
        <time>2010-01-01T00:00:00Z</time>
      </trkpt>
      <trkpt lat="48.77809" lon="2.09993">
        <ele>116.4</ele>
        <time>2010-01-01T00:00:00Z</time>
      </trkpt>
      <trkpt lat="48.77814" lon="2.09952">
        <ele>124.4</ele>
      </trkpt>
      <trkpt lat="48.77829" lon="2.09933">
        <ele>117.703125</ele>
        <time>2010-01-01T00:00:00Z</time>
      </trkpt>
      <trkpt lat="48.77833" lon="2.09911">
        <ele>117.3359375</ele>
        <time>2010-01-01T00:00:00Z</time>
      </trkpt>
      <trkpt lat="48.77841" lon="2.09891">
        <ele>117.58203125</ele>
        <time>2010-01-01T00:00:00Z</time>
      </trkpt>
      <trkpt lat="48.7786" lon="2.09884">
        <ele>119.15234375</ele>
        <time>2010-01-01T00:00:00Z</time>
      </trkpt>
      <trkpt lat="48.77879" lon="2.09883">
        <ele>122.61328125</ele>
        <time>2010-01-01T00:00:00Z</time>
      </trkpt>
      <trkpt lat="48.77896" lon="2.09888">
        <ele>125.57421875</ele>
        <time>2010-01-01T00:00:00Z</time>
      </trkpt>
      <trkpt lat="48.77914" lon="2.09897">
        <ele>128.1953125</ele>
        <time>2010-01-01T00:00:00Z</time>
      </trkpt>
      <trkpt lat="48.77919" lon="2.09902">
        <ele>129.45703125</ele>
        <time>2010-01-01T00:00:00Z</time>
      </trkpt>
      <trkpt lat="48.77938" lon="2.09914">
        <ele>132.05078125</ele>
        <time>2010-01-01T00:00:00Z</time>
      </trkpt>
      <trkpt lat="48.77952" lon="2.0992">
        <ele>133.0078125</ele>
        <time>2010-01-01T00:00:00Z</time>
      </trkpt>
      <trkpt lat="48.7796" lon="2.09922">
        <ele>133.109375</ele>
        <time>2010-01-01T00:00:00Z</time>
      </trkpt>
      <trkpt lat="48.77993" lon="2.09919">
        <ele>132.33203125</ele>
        <time>2010-01-01T00:00:00Z</time>
      </trkpt>
      <trkpt lat="48.78003" lon="2.09915">
        <ele>131.5078125</ele>
        <time>2010-01-01T00:00:00Z</time>
      </trkpt>
      <trkpt lat="48.78019" lon="2.09905">
        <ele>129.7109375</ele>
        <time>2010-01-01T00:00:00Z</time>
      </trkpt>
      <trkpt lat="48.78033" lon="2.0989">
        <ele>128.078125</ele>
        <time>2010-01-01T00:00:00Z</time>
      </trkpt>
      <trkpt lat="48.78051" lon="2.09859">
        <ele>125.44140625</ele>
        <time>2010-01-01T00:00:00Z</time>
      </trkpt>
      <trkpt lat="48.78061" lon="2.09836">
        <ele>124.3671875</ele>
        <time>2010-01-01T00:00:00Z</time>
      </trkpt>
      <trkpt lat="48.78063" lon="2.09814">
        <ele>123.2109375</ele>
        <time>2010-01-01T00:00:00Z</time>
      </trkpt>
      <trkpt lat="48.78065" lon="2.09777">
        <ele>122.3515625</ele>
        <time>2010-01-01T00:00:00Z</time>
      </trkpt>
      <trkpt lat="48.78064" lon="2.09747">
        <ele>122.0546875</ele>
        <time>2010-01-01T00:00:00Z</time>
      </trkpt>
      <trkpt lat="48.78056" lon="2.0971">
        <ele>121.04296875</ele>
        <time>2010-01-01T00:00:00Z</time>
      </trkpt>
      <trkpt lat="48.78042" lon="2.09667">
        <ele>122.59765625</ele>
        <time>2010-01-01T00:00:00Z</time>
      </trkpt>
      <trkpt lat="48.78035" lon="2.09641">
        <ele>123.58203125</ele>
        <time>2010-01-01T00:00:00Z</time>
      </trkpt>
      <trkpt lat="48.78033" lon="2.09606">
        <ele>124.7734375</ele>
        <time>2010-01-01T00:00:00Z</time>
      </trkpt>
      <trkpt lat="48.78033" lon="2.09606">
        <ele>124.7734375</ele>
        <time>2010-01-01T00:00:00Z</time>
      </trkpt>
      <trkpt lat="48.78031" lon="2.09567">
        <ele>126.10546875</ele>
        <time>2010-01-01T00:00:00Z</time>
      </trkpt>
      <trkpt lat="48.7804" lon="2.0956">
        <ele>126.4375</ele>
        <time>2010-01-01T00:00:00Z</time>
      </trkpt>
      <trkpt lat="48.7805" lon="2.09553">
        <ele>126.796875</ele>
        <time>2010-01-01T00:00:00Z</time>
      </trkpt>
      <trkpt lat="48.78046" lon="2.09533">
        <ele>126.578125</ele>
        <time>2010-01-01T00:00:00Z</time>
      </trkpt>
      <trkpt lat="48.78045" lon="2.09521">
        <ele>126.37109375</ele>
        <time>2010-01-01T00:00:00Z</time>
      </trkpt>
      <trkpt lat="48.7803" lon="2.09455">
        <ele>125.1328125</ele>
        <time>2010-01-01T00:00:00Z</time>
      </trkpt>
      <trkpt lat="48.78029" lon="2.09397">
        <ele>124.125</ele>
        <time>2010-01-01T00:00:00Z</time>
      </trkpt>
      <trkpt lat="48.78034" lon="2.0932">
        <ele>124.6640625</ele>
        <time>2010-01-01T00:00:00Z</time>
      </trkpt>
      <trkpt lat="48.78038" lon="2.09255">
        <ele>125.09765625</ele>
        <time>2010-01-01T00:00:00Z</time>
      </trkpt>
      <trkpt lat="48.7805" lon="2.09198">
        <ele>125.37109375</ele>
        <time>2010-01-01T00:00:00Z</time>
      </trkpt>
      <trkpt lat="48.78062" lon="2.09164">
        <ele>125.6875</ele>
        <time>2010-01-01T00:00:00Z</time>
      </trkpt>
      <trkpt lat="48.78072" lon="2.09149">
        <ele>126.1328125</ele>
        <time>2010-01-01T00:00:00Z</time>
      </trkpt>
      <trkpt lat="48.78091" lon="2.09127">
        <ele>127.6640625</ele>
        <time>2010-01-01T00:00:00Z</time>
      </trkpt>
      <trkpt lat="48.7812" lon="2.09094">
        <ele>129.1796875</ele>
        <time>2010-01-01T00:00:00Z</time>
      </trkpt>
      <trkpt lat="48.7814" lon="2.09074">
        <ele>129.20703125</ele>
        <time>2010-01-01T00:00:00Z</time>
      </trkpt>
      <trkpt lat="48.78156" lon="2.09059">
        <ele>129.8515625</ele>
        <time>2010-01-01T00:00:00Z</time>
      </trkpt>
      <trkpt lat="48.78174" lon="2.09043">
        <ele>130.0234375</ele>
        <time>2010-01-01T00:00:00Z</time>
      </trkpt>
      <trkpt lat="48.78197" lon="2.09008">
        <ele>128.2109375</ele>
        <time>2010-01-01T00:00:00Z</time>
      </trkpt>
      <trkpt lat="48.78199" lon="2.08994">
        <ele>127.55859375</ele>
        <time>2010-01-01T00:00:00Z</time>
      </trkpt>
      <trkpt lat="48.78199" lon="2.08978">
        <ele>126.58203125</ele>
        <time>2010-01-01T00:00:00Z</time>
      </trkpt>
      <trkpt lat="48.78208" lon="2.08984">
        <ele>128.4609375</ele>
        <time>2010-01-01T00:00:00Z</time>
      </trkpt>
      <trkpt lat="48.78208" lon="2.08984">
        <ele>128.4609375</ele>
        <time>2010-01-01T00:00:00Z</time>
      </trkpt>
      <trkpt lat="48.78222" lon="2.08993">
        <ele>131.6328125</ele>
        <time>2010-01-01T00:00:00Z</time>
      </trkpt>
      <trkpt lat="48.78226" lon="2.0898">
        <ele>131.80859375</ele>
        <time>2010-01-01T00:00:00Z</time>
      </trkpt>
      <trkpt lat="48.78229" lon="2.08973">
        <ele>132.09375</ele>
        <time>2010-01-01T00:00:00Z</time>
      </trkpt>
      <trkpt lat="48.78229" lon="2.08956">
        <ele>130.71875</ele>
        <time>2010-01-01T00:00:00Z</time>
      </trkpt>
      <trkpt lat="48.78228" lon="2.08925">
        <ele>129.234375</ele>
        <time>2010-01-01T00:00:00Z</time>
      </trkpt>
      <trkpt lat="48.78228" lon="2.08892">
        <ele>129.046875</ele>
        <time>2010-01-01T00:00:00Z</time>
      </trkpt>
      <trkpt lat="48.78234" lon="2.08856">
        <ele>129.52734375</ele>
        <time>2010-01-01T00:00:00Z</time>
      </trkpt>
      <trkpt lat="48.78235" lon="2.08804">
        <ele>128.37109375</ele>
        <time>2010-01-01T00:00:00Z</time>
      </trkpt>
      <trkpt lat="48.78235" lon="2.08771">
        <ele>127.84765625</ele>
        <time>2010-01-01T00:00:00Z</time>
      </trkpt>
      <trkpt lat="48.78238" lon="2.08752">
        <ele>128.08203125</ele>
        <time>2010-01-01T00:00:00Z</time>
      </trkpt>
      <trkpt lat="48.78241" lon="2.08738">
        <ele>128.1328125</ele>
        <time>2010-01-01T00:00:00Z</time>
      </trkpt>
      <trkpt lat="48.78256" lon="2.08679">
        <ele>130.30859375</ele>
        <time>2010-01-01T00:00:00Z</time>
      </trkpt>
      <trkpt lat="48.78257" lon="2.08628">
        <ele>129.45703125</ele>
        <time>2010-01-01T00:00:00Z</time>
      </trkpt>
      <trkpt lat="48.78262" lon="2.08613">
        <ele>130.015625</ele>
        <time>2010-01-01T00:00:00Z</time>
      </trkpt>
      <trkpt lat="48.78274" lon="2.08603">
        <ele>131.7109375</ele>
        <time>2010-01-01T00:00:00Z</time>
      </trkpt>
      <trkpt lat="48.78292" lon="2.08592">
        <ele>134.29296875</ele>
        <time>2010-01-01T00:00:00Z</time>
      </trkpt>
      <trkpt lat="48.78309" lon="2.08577">
        <ele>135.72265625</ele>
        <time>2010-01-01T00:00:00Z</time>
      </trkpt>
      <trkpt lat="48.78319" lon="2.08565">
        <ele>136.18359375</ele>
        <time>2010-01-01T00:00:00Z</time>
      </trkpt>
      <trkpt lat="48.78328" lon="2.08554">
        <ele>136.3125</ele>
        <time>2010-01-01T00:00:00Z</time>
      </trkpt>
      <trkpt lat="48.78346" lon="2.08534">
        <ele>136.7109375</ele>
        <time>2010-01-01T00:00:00Z</time>
      </trkpt>
      <trkpt lat="48.78359" lon="2.08513">
        <ele>135.9453125</ele>
        <time>2010-01-01T00:00:00Z</time>
      </trkpt>
      <trkpt lat="48.7835" lon="2.08504">
        <ele>134.359375</ele>
        <time>2010-01-01T00:00:00Z</time>
      </trkpt>
      <trkpt lat="48.78354" lon="2.08499">
        <ele>134.4375</ele>
        <time>2010-01-01T00:00:00Z</time>
      </trkpt>
      <trkpt lat="48.78354" lon="2.08499">
        <ele>134.4375</ele>
        <time>2010-01-01T00:00:00Z</time>
      </trkpt>
      <trkpt lat="48.78356" lon="2.08496">
        <ele>134.421875</ele>
        <time>2010-01-01T00:00:00Z</time>
      </trkpt>
      <trkpt lat="48.78366" lon="2.08474">
        <ele>133.9296875</ele>
        <time>2010-01-01T00:00:00Z</time>
      </trkpt>
      <trkpt lat="48.78386" lon="2.08434">
        <ele>133.8984375</ele>
        <time>2010-01-01T00:00:00Z</time>
      </trkpt>
      <trkpt lat="48.78397" lon="2.08407">
        <ele>134.48046875</ele>
        <time>2010-01-01T00:00:00Z</time>
      </trkpt>
      <trkpt lat="48.78408" lon="2.08382">
        <ele>134.62890625</ele>
        <time>2010-01-01T00:00:00Z</time>
      </trkpt>
      <trkpt lat="48.78416" lon="2.08368">
        <ele>134.5859375</ele>
        <time>2010-01-01T00:00:00Z</time>
      </trkpt>
      <trkpt lat="48.78426" lon="2.08357">
        <ele>135.015625</ele>
        <time>2010-01-01T00:00:00Z</time>
      </trkpt>
      <trkpt lat="48.78441" lon="2.08348">
        <ele>135.9296875</ele>
        <time>2010-01-01T00:00:00Z</time>
      </trkpt>
      <trkpt lat="48.78457" lon="2.0834">
        <ele>137.28125</ele>
        <time>2010-01-01T00:00:00Z</time>
      </trkpt>
      <trkpt lat="48.78474" lon="2.08334">
        <ele>138.62890625</ele>
        <time>2010-01-01T00:00:00Z</time>
      </trkpt>
      <trkpt lat="48.78491" lon="2.08326">
        <ele>139.48046875</ele>
        <time>2010-01-01T00:00:00Z</time>
      </trkpt>
      <trkpt lat="48.78525" lon="2.08316">
        <ele>141.4609375</ele>
        <time>2010-01-01T00:00:00Z</time>
      </trkpt>
      <trkpt lat="48.7854" lon="2.08309">
        <ele>141.671875</ele>
        <time>2010-01-01T00:00:00Z</time>
      </trkpt>
      <trkpt lat="48.78554" lon="2.08299">
        <ele>140.88671875</ele>
        <time>2010-01-01T00:00:00Z</time>
      </trkpt>
      <trkpt lat="48.7857" lon="2.0829">
        <ele>140.109375</ele>
        <time>2010-01-01T00:00:00Z</time>
      </trkpt>
      <trkpt lat="48.78589" lon="2.08283">
        <ele>140.40234375</ele>
        <time>2010-01-01T00:00:00Z</time>
      </trkpt>
      <trkpt lat="48.78623" lon="2.08275">
        <ele>141.01171875</ele>
        <time>2010-01-01T00:00:00Z</time>
      </trkpt>
      <trkpt lat="48.78636" lon="2.08268">
        <ele>140.69921875</ele>
        <time>2010-01-01T00:00:00Z</time>
      </trkpt>
      <trkpt lat="48.78661" lon="2.08243">
        <ele>138.87890625</ele>
        <time>2010-01-01T00:00:00Z</time>
      </trkpt>
      <trkpt lat="48.78672" lon="2.08232">
        <ele>138.4140625</ele>
        <time>2010-01-01T00:00:00Z</time>
      </trkpt>
      <trkpt lat="48.78685" lon="2.08222">
        <ele>138.5390625</ele>
        <time>2010-01-01T00:00:00Z</time>
      </trkpt>
      <trkpt lat="48.78701" lon="2.08216">
        <ele>138.7890625</ele>
        <time>2010-01-01T00:00:00Z</time>
      </trkpt>
      <trkpt lat="48.78715" lon="2.08212">
        <ele>138.84765625</ele>
        <time>2010-01-01T00:00:00Z</time>
      </trkpt>
      <trkpt lat="48.78732" lon="2.08214">
        <ele>139.89453125</ele>
        <time>2010-01-01T00:00:00Z</time>
      </trkpt>
      <trkpt lat="48.78746" lon="2.0822">
        <ele>141.37109375</ele>
        <time>2010-01-01T00:00:00Z</time>
      </trkpt>
      <trkpt lat="48.7876" lon="2.08228">
        <ele>143.16796875</ele>
        <time>2010-01-01T00:00:00Z</time>
      </trkpt>
      <trkpt lat="48.7877" lon="2.08233">
        <ele>144.48046875</ele>
        <time>2010-01-01T00:00:00Z</time>
      </trkpt>
      <trkpt lat="48.78781" lon="2.08235">
        <ele>145.13671875</ele>
        <time>2010-01-01T00:00:00Z</time>
      </trkpt>
      <trkpt lat="48.7879" lon="2.08229">
        <ele>143.8671875</ele>
        <time>2010-01-01T00:00:00Z</time>
      </trkpt>
      <trkpt lat="48.78799" lon="2.08215">
        <ele>140.84375</ele>
        <time>2010-01-01T00:00:00Z</time>
      </trkpt>
      <trkpt lat="48.78803" lon="2.08202">
        <ele>138.35546875</ele>
        <time>2010-01-01T00:00:00Z</time>
      </trkpt>
      <trkpt lat="48.78803" lon="2.08202">
        <ele>138.35546875</ele>
        <time>2010-01-01T00:00:00Z</time>
      </trkpt>
      <trkpt lat="48.78803" lon="2.08202">
        <ele>138.35546875</ele>
        <time>2010-01-01T00:00:00Z</time>
      </trkpt>
      <trkpt lat="48.78803" lon="2.08202">
        <ele>138.35546875</ele>
        <time>2010-01-01T00:00:00Z</time>
      </trkpt>
      <trkpt lat="48.78802" lon="2.08187">
        <ele>136.1953125</ele>
        <time>2010-01-01T00:00:00Z</time>
      </trkpt>
      <trkpt lat="48.78792" lon="2.08174">
        <ele>134.91796875</ele>
        <time>2010-01-01T00:00:00Z</time>
      </trkpt>
      <trkpt lat="48.78779" lon="2.08158">
        <ele>134.2</ele>
        <time>2010-01-01T00:00:00Z</time>
      </trkpt>
      <trkpt lat="48.78755" lon="2.08129">
        <ele>134.7890625</ele>
        <time>2010-01-01T00:00:00Z</time>
      </trkpt>
      <trkpt lat="48.78741" lon="2.08114">
        <ele>135.01953125</ele>
        <time>2010-01-01T00:00:00Z</time>
      </trkpt>
      <trkpt lat="48.78725" lon="2.08106">
        <ele>134.73046875</ele>
        <time>2010-01-01T00:00:00Z</time>
      </trkpt>
      <trkpt lat="48.78711" lon="2.08107">
        <ele>135.203125</ele>
        <time>2010-01-01T00:00:00Z</time>
      </trkpt>
      <trkpt lat="48.78649" lon="2.08121">
        <ele>136.86328125</ele>
        <time>2010-01-01T00:00:00Z</time>
      </trkpt>
      <trkpt lat="48.78628" lon="2.08132">
        <ele>136.16796875</ele>
        <time>2010-01-01T00:00:00Z</time>
      </trkpt>
      <trkpt lat="48.78609" lon="2.08138">
        <ele>135.90234375</ele>
        <time>2010-01-01T00:00:00Z</time>
      </trkpt>
      <trkpt lat="48.78599" lon="2.08148">
        <ele>135.16796875</ele>
        <time>2010-01-01T00:00:00Z</time>
      </trkpt>
      <trkpt lat="48.78603" lon="2.08141">
        <ele>135.6171875</ele>
        <time>2010-01-01T00:00:00Z</time>
      </trkpt>
      <trkpt lat="48.78603" lon="2.08141">
        <ele>135.6171875</ele>
        <time>2010-01-01T00:00:00Z</time>
      </trkpt>
      <trkpt lat="48.78599" lon="2.08148">
        <ele>135.16796875</ele>
        <time>2010-01-01T00:00:00Z</time>
      </trkpt>
      <trkpt lat="48.78591" lon="2.08138">
        <ele>137.2</ele>
        <time>2010-01-01T00:00:00Z</time>
      </trkpt>
      <trkpt lat="48.78576" lon="2.08123">
        <ele>137.7</ele>
        <time>2010-01-01T00:00:00Z</time>
      </trkpt>
      <trkpt lat="48.7856" lon="2.08099">
        <ele>135.20703125</ele>
        <time>2010-01-01T00:00:00Z</time>
      </trkpt>
      <trkpt lat="48.7853" lon="2.08048">
        <ele>134.94921875</ele>
        <time>2010-01-01T00:00:00Z</time>
      </trkpt>
      <trkpt lat="48.78499" lon="2.08001">
        <ele>134.36328125</ele>
        <time>2010-01-01T00:00:00Z</time>
      </trkpt>
      <trkpt lat="48.78492" lon="2.07978">
        <ele>134.66796875</ele>
        <time>2010-01-01T00:00:00Z</time>
      </trkpt>
      <trkpt lat="48.78482" lon="2.0796">
        <ele>134.59765625</ele>
        <time>2010-01-01T00:00:00Z</time>
      </trkpt>
      <trkpt lat="48.7845" lon="2.07887">
        <ele>134.234375</ele>
        <time>2010-01-01T00:00:00Z</time>
      </trkpt>
      <trkpt lat="48.78447" lon="2.07873">
        <ele>134.40625</ele>
        <time>2010-01-01T00:00:00Z</time>
      </trkpt>
      <trkpt lat="48.78428" lon="2.07817">
        <ele>134.87109375</ele>
        <time>2010-01-01T00:00:00Z</time>
      </trkpt>
      <trkpt lat="48.78414" lon="2.07779">
        <ele>135.18359375</ele>
        <time>2010-01-01T00:00:00Z</time>
      </trkpt>
      <trkpt lat="48.78395" lon="2.07723">
        <ele>135.18359375</ele>
        <time>2010-01-01T00:00:00Z</time>
      </trkpt>
      <trkpt lat="48.78383" lon="2.07707">
        <ele>134.578125</ele>
        <time>2010-01-01T00:00:00Z</time>
      </trkpt>
      <trkpt lat="48.78361" lon="2.07686">
        <ele>133.75</ele>
        <time>2010-01-01T00:00:00Z</time>
      </trkpt>
      <trkpt lat="48.78345" lon="2.07667">
        <ele>133.609375</ele>
        <time>2010-01-01T00:00:00Z</time>
      </trkpt>
      <trkpt lat="48.78333" lon="2.07649">
        <ele>133.08203125</ele>
        <time>2010-01-01T00:00:00Z</time>
      </trkpt>
      <trkpt lat="48.78314" lon="2.07628">
        <ele>133.2578125</ele>
        <time>2010-01-01T00:00:00Z</time>
      </trkpt>
      <trkpt lat="48.78306" lon="2.07621">
        <ele>133.01953125</ele>
        <time>2010-01-01T00:00:00Z</time>
      </trkpt>
      <trkpt lat="48.78283" lon="2.07603">
        <ele>133</ele>
        <time>2010-01-01T00:00:00Z</time>
      </trkpt>
      <trkpt lat="48.78256" lon="2.07578">
        <ele>133.640625</ele>
        <time>2010-01-01T00:00:00Z</time>
      </trkpt>
      <trkpt lat="48.78232" lon="2.07549">
        <ele>133.35546875</ele>
        <time>2010-01-01T00:00:00Z</time>
      </trkpt>
      <trkpt lat="48.78219" lon="2.0753">
        <ele>133.1875</ele>
        <time>2010-01-01T00:00:00Z</time>
      </trkpt>
      <trkpt lat="48.7821" lon="2.07505">
        <ele>133.58984375</ele>
        <time>2010-01-01T00:00:00Z</time>
      </trkpt>
      <trkpt lat="48.78206" lon="2.07477">
        <ele>134.1171875</ele>
        <time>2010-01-01T00:00:00Z</time>
      </trkpt>
      <trkpt lat="48.78207" lon="2.07454">
        <ele>134.453125</ele>
        <time>2010-01-01T00:00:00Z</time>
      </trkpt>
      <trkpt lat="48.78214" lon="2.07434">
        <ele>134.70703125</ele>
        <time>2010-01-01T00:00:00Z</time>
      </trkpt>
      <trkpt lat="48.78215" lon="2.07421">
        <ele>134.7421875</ele>
        <time>2010-01-01T00:00:00Z</time>
      </trkpt>
      <trkpt lat="48.78213" lon="2.07412">
        <ele>134.66796875</ele>
        <time>2010-01-01T00:00:00Z</time>
      </trkpt>
      <trkpt lat="48.78213" lon="2.07412">
        <ele>134.66796875</ele>
        <time>2010-01-01T00:00:00Z</time>
      </trkpt>
      <trkpt lat="48.78213" lon="2.07411">
        <ele>134.66796875</ele>
        <time>2010-01-01T00:00:00Z</time>
      </trkpt>
      <trkpt lat="48.78209" lon="2.07396">
        <ele>134.62890625</ele>
        <time>2010-01-01T00:00:00Z</time>
      </trkpt>
      <trkpt lat="48.782" lon="2.07381">
        <ele>134.34765625</ele>
        <time>2010-01-01T00:00:00Z</time>
      </trkpt>
      <trkpt lat="48.78193" lon="2.07352">
        <ele>134.73828125</ele>
        <time>2010-01-01T00:00:00Z</time>
      </trkpt>
      <trkpt lat="48.78187" lon="2.07318">
        <ele>135.46875</ele>
        <time>2010-01-01T00:00:00Z</time>
      </trkpt>
      <trkpt lat="48.78184" lon="2.07284">
        <ele>135.875</ele>
        <time>2010-01-01T00:00:00Z</time>
      </trkpt>
      <trkpt lat="48.78183" lon="2.0725">
        <ele>135.765625</ele>
        <time>2010-01-01T00:00:00Z</time>
      </trkpt>
      <trkpt lat="48.78185" lon="2.07218">
        <ele>135.98046875</ele>
        <time>2010-01-01T00:00:00Z</time>
      </trkpt>
      <trkpt lat="48.78189" lon="2.0719">
        <ele>136.4140625</ele>
        <time>2010-01-01T00:00:00Z</time>
      </trkpt>
      <trkpt lat="48.7819" lon="2.07155">
        <ele>136.5234375</ele>
        <time>2010-01-01T00:00:00Z</time>
      </trkpt>
      <trkpt lat="48.78189" lon="2.07122">
        <ele>136.4140625</ele>
        <time>2010-01-01T00:00:00Z</time>
      </trkpt>
      <trkpt lat="48.78186" lon="2.07085">
        <ele>136.3671875</ele>
        <time>2010-01-01T00:00:00Z</time>
      </trkpt>
      <trkpt lat="48.78182" lon="2.07064">
        <ele>136.2109375</ele>
        <time>2010-01-01T00:00:00Z</time>
      </trkpt>
      <trkpt lat="48.7818" lon="2.07054">
        <ele>135.921875</ele>
        <time>2010-01-01T00:00:00Z</time>
      </trkpt>
      <trkpt lat="48.78165" lon="2.07012">
        <ele>134.14453125</ele>
        <time>2010-01-01T00:00:00Z</time>
      </trkpt>
      <trkpt lat="48.78154" lon="2.06983">
        <ele>135.4609375</ele>
        <time>2010-01-01T00:00:00Z</time>
      </trkpt>
      <trkpt lat="48.78133" lon="2.06945">
        <ele>135.1171875</ele>
        <time>2010-01-01T00:00:00Z</time>
      </trkpt>
      <trkpt lat="48.78113" lon="2.06911">
        <ele>134.421875</ele>
        <time>2010-01-01T00:00:00Z</time>
      </trkpt>
      <trkpt lat="48.78091" lon="2.0688">
        <ele>134.37109375</ele>
        <time>2010-01-01T00:00:00Z</time>
      </trkpt>
      <trkpt lat="48.78077" lon="2.06861">
        <ele>134.7109375</ele>
        <time>2010-01-01T00:00:00Z</time>
      </trkpt>
      <trkpt lat="48.78071" lon="2.0686">
        <ele>134.9453125</ele>
        <time>2010-01-01T00:00:00Z</time>
      </trkpt>
      <trkpt lat="48.78071" lon="2.06859">
        <ele>134.94921875</ele>
        <time>2010-01-01T00:00:00Z</time>
      </trkpt>
      <trkpt lat="48.78075" lon="2.06855">
        <ele>134.875</ele>
        <time>2010-01-01T00:00:00Z</time>
      </trkpt>
      <trkpt lat="48.78075" lon="2.06855">
        <ele>134.875</ele>
        <time>2010-01-01T00:00:00Z</time>
      </trkpt>
      <trkpt lat="48.78071" lon="2.06859">
        <ele>134.94921875</ele>
        <time>2010-01-01T00:00:00Z</time>
      </trkpt>
      <trkpt lat="48.78071" lon="2.0686">
        <ele>134.9453125</ele>
        <time>2010-01-01T00:00:00Z</time>
      </trkpt>
      <trkpt lat="48.78061" lon="2.06874">
        <ele>135.6171875</ele>
        <time>2010-01-01T00:00:00Z</time>
      </trkpt>
      <trkpt lat="48.78053" lon="2.06886">
        <ele>137.1484375</ele>
        <time>2010-01-01T00:00:00Z</time>
      </trkpt>
      <trkpt lat="48.78046" lon="2.06899">
        <ele>138.84375</ele>
        <time>2010-01-01T00:00:00Z</time>
      </trkpt>
      <trkpt lat="48.78045" lon="2.06906">
        <ele>139.515625</ele>
        <time>2010-01-01T00:00:00Z</time>
      </trkpt>
      <trkpt lat="48.78046" lon="2.06914">
        <ele>140.078125</ele>
        <time>2010-01-01T00:00:00Z</time>
      </trkpt>
      <trkpt lat="48.78052" lon="2.06923">
        <ele>140.0234375</ele>
        <time>2010-01-01T00:00:00Z</time>
      </trkpt>
      <trkpt lat="48.78066" lon="2.06939">
        <ele>139.19140625</ele>
        <time>2010-01-01T00:00:00Z</time>
      </trkpt>
      <trkpt lat="48.7808" lon="2.06956">
        <ele>138.3984375</ele>
        <time>2010-01-01T00:00:00Z</time>
      </trkpt>
      <trkpt lat="48.78092" lon="2.06975">
        <ele>138.4609375</ele>
        <time>2010-01-01T00:00:00Z</time>
      </trkpt>
      <trkpt lat="48.78103" lon="2.06992">
        <ele>138.45703125</ele>
        <time>2010-01-01T00:00:00Z</time>
      </trkpt>
      <trkpt lat="48.78108" lon="2.07002">
        <ele>138.6328125</ele>
        <time>2010-01-01T00:00:00Z</time>
      </trkpt>
      <trkpt lat="48.78114" lon="2.07013">
        <ele>138.70703125</ele>
        <time>2010-01-01T00:00:00Z</time>
      </trkpt>
      <trkpt lat="48.78122" lon="2.07036">
        <ele>139.171875</ele>
        <time>2010-01-01T00:00:00Z</time>
      </trkpt>
      <trkpt lat="48.78126" lon="2.07064">
        <ele>139.703125</ele>
        <time>2010-01-01T00:00:00Z</time>
      </trkpt>
      <trkpt lat="48.78127" lon="2.0709">
        <ele>140.05078125</ele>
        <time>2010-01-01T00:00:00Z</time>
      </trkpt>
      <trkpt lat="48.78126" lon="2.07119">
        <ele>140.32421875</ele>
        <time>2010-01-01T00:00:00Z</time>
      </trkpt>
      <trkpt lat="48.78118" lon="2.07177">
        <ele>141.07421875</ele>
        <time>2010-01-01T00:00:00Z</time>
      </trkpt>
      <trkpt lat="48.78117" lon="2.07211">
        <ele>141.265625</ele>
        <time>2010-01-01T00:00:00Z</time>
      </trkpt>
      <trkpt lat="48.78114" lon="2.07336">
        <ele>142.484375</ele>
        <time>2010-01-01T00:00:00Z</time>
      </trkpt>
      <trkpt lat="48.78114" lon="2.07369">
        <ele>143.31640625</ele>
        <time>2010-01-01T00:00:00Z</time>
      </trkpt>
      <trkpt lat="48.78117" lon="2.07411">
        <ele>144.0078125</ele>
        <time>2010-01-01T00:00:00Z</time>
      </trkpt>
      <trkpt lat="48.78123" lon="2.07449">
        <ele>143.31640625</ele>
        <time>2010-01-01T00:00:00Z</time>
      </trkpt>
      <trkpt lat="48.78128" lon="2.07484">
        <ele>143.328125</ele>
        <time>2010-01-01T00:00:00Z</time>
      </trkpt>
      <trkpt lat="48.78136" lon="2.07552">
        <ele>145.05078125</ele>
        <time>2010-01-01T00:00:00Z</time>
      </trkpt>
      <trkpt lat="48.7814" lon="2.07579">
        <ele>145.55859375</ele>
        <time>2010-01-01T00:00:00Z</time>
      </trkpt>
      <trkpt lat="48.78149" lon="2.07595">
        <ele>144.765625</ele>
        <time>2010-01-01T00:00:00Z</time>
      </trkpt>
      <trkpt lat="48.78161" lon="2.07617">
        <ele>144.51953125</ele>
        <time>2010-01-01T00:00:00Z</time>
      </trkpt>
      <trkpt lat="48.78177" lon="2.07637">
        <ele>143.59765625</ele>
        <time>2010-01-01T00:00:00Z</time>
      </trkpt>
      <trkpt lat="48.78204" lon="2.07674">
        <ele>143.078125</ele>
        <time>2010-01-01T00:00:00Z</time>
      </trkpt>
      <trkpt lat="48.78236" lon="2.07719">
        <ele>143.83203125</ele>
        <time>2010-01-01T00:00:00Z</time>
      </trkpt>
      <trkpt lat="48.78247" lon="2.07731">
        <ele>143.1484375</ele>
        <time>2010-01-01T00:00:00Z</time>
      </trkpt>
      <trkpt lat="48.78265" lon="2.07742">
        <ele>141.76171875</ele>
        <time>2010-01-01T00:00:00Z</time>
      </trkpt>
      <trkpt lat="48.78274" lon="2.07746">
        <ele>140.828125</ele>
        <time>2010-01-01T00:00:00Z</time>
      </trkpt>
      <trkpt lat="48.78282" lon="2.07754">
        <ele>140.21875</ele>
        <time>2010-01-01T00:00:00Z</time>
      </trkpt>
      <trkpt lat="48.78289" lon="2.07768">
        <ele>140.08984375</ele>
        <time>2010-01-01T00:00:00Z</time>
      </trkpt>
      <trkpt lat="48.78295" lon="2.07781">
        <ele>139.86328125</ele>
        <time>2010-01-01T00:00:00Z</time>
      </trkpt>
      <trkpt lat="48.78296" lon="2.07788">
        <ele>140.2109375</ele>
        <time>2010-01-01T00:00:00Z</time>
      </trkpt>
      <trkpt lat="48.78314" lon="2.07834">
        <ele>139.0625</ele>
        <time>2010-01-01T00:00:00Z</time>
      </trkpt>
      <trkpt lat="48.78324" lon="2.0785">
        <ele>138.69921875</ele>
        <time>2010-01-01T00:00:00Z</time>
      </trkpt>
      <trkpt lat="48.78334" lon="2.07868">
        <ele>138.53515625</ele>
        <time>2010-01-01T00:00:00Z</time>
      </trkpt>
      <trkpt lat="48.78344" lon="2.0789">
        <ele>140.00390625</ele>
        <time>2010-01-01T00:00:00Z</time>
      </trkpt>
      <trkpt lat="48.78351" lon="2.07907">
        <ele>141.07421875</ele>
        <time>2010-01-01T00:00:00Z</time>
      </trkpt>
      <trkpt lat="48.78358" lon="2.07932">
        <ele>142.66796875</ele>
        <time>2010-01-01T00:00:00Z</time>
      </trkpt>
      <trkpt lat="48.78367" lon="2.07986">
        <ele>143.74609375</ele>
        <time>2010-01-01T00:00:00Z</time>
      </trkpt>
      <trkpt lat="48.7837" lon="2.0801">
        <ele>143.67578125</ele>
        <time>2010-01-01T00:00:00Z</time>
      </trkpt>
      <trkpt lat="48.78372" lon="2.08037">
        <ele>143.22265625</ele>
        <time>2010-01-01T00:00:00Z</time>
      </trkpt>
      <trkpt lat="48.78377" lon="2.08062">
        <ele>134.2</ele>
        <time>2010-01-01T00:00:00Z</time>
      </trkpt>
      <trkpt lat="48.78361" lon="2.0813">
        <ele>137.1</ele>
      </trkpt>
      <trkpt lat="48.78351" lon="2.08169">
        <ele>133.6</ele>
      </trkpt>
      <trkpt lat="48.78344" lon="2.08174">
        <ele>133.6</ele>
      </trkpt>
      <trkpt lat="48.78325" lon="2.08208">
        <ele>136.81640625</ele>
        <time>2010-01-01T00:00:00Z</time>
      </trkpt>
      <trkpt lat="48.78313" lon="2.08233">
        <ele>136.53515625</ele>
        <time>2010-01-01T00:00:00Z</time>
      </trkpt>
      <trkpt lat="48.783" lon="2.0826">
        <ele>136.12890625</ele>
        <time>2010-01-01T00:00:00Z</time>
      </trkpt>
      <trkpt lat="48.7827" lon="2.08311">
        <ele>136.3671875</ele>
        <time>2010-01-01T00:00:00Z</time>
      </trkpt>
      <trkpt lat="48.78259" lon="2.08332">
        <ele>135.625</ele>
        <time>2010-01-01T00:00:00Z</time>
      </trkpt>
      <trkpt lat="48.78252" lon="2.08352">
        <ele>134.609375</ele>
        <time>2010-01-01T00:00:00Z</time>
      </trkpt>
      <trkpt lat="48.78247" lon="2.08364">
        <ele>134.5703125</ele>
        <time>2010-01-01T00:00:00Z</time>
      </trkpt>
      <trkpt lat="48.78246" lon="2.08365">
        <ele>134.61328125</ele>
        <time>2010-01-01T00:00:00Z</time>
      </trkpt>
      <trkpt lat="48.78246" lon="2.08365">
        <ele>134.61328125</ele>
        <time>2010-01-01T00:00:00Z</time>
      </trkpt>
      <trkpt lat="48.78232" lon="2.0839">
        <ele>134.0703125</ele>
        <time>2010-01-01T00:00:00Z</time>
      </trkpt>
      <trkpt lat="48.78224" lon="2.08404">
        <ele>133.64453125</ele>
        <time>2010-01-01T00:00:00Z</time>
      </trkpt>
      <trkpt lat="48.78215" lon="2.08419">
        <ele>133.20703125</ele>
        <time>2010-01-01T00:00:00Z</time>
      </trkpt>
      <trkpt lat="48.78208" lon="2.0843">
        <ele>132.96875</ele>
        <time>2010-01-01T00:00:00Z</time>
      </trkpt>
      <trkpt lat="48.78182" lon="2.0848">
        <ele>133.109375</ele>
        <time>2010-01-01T00:00:00Z</time>
      </trkpt>
      <trkpt lat="48.78145" lon="2.08552">
        <ele>132.66015625</ele>
        <time>2010-01-01T00:00:00Z</time>
      </trkpt>
      <trkpt lat="48.78135" lon="2.08567">
        <ele>132.7421875</ele>
        <time>2010-01-01T00:00:00Z</time>
      </trkpt>
      <trkpt lat="48.78124" lon="2.08583">
        <ele>132.69140625</ele>
        <time>2010-01-01T00:00:00Z</time>
      </trkpt>
      <trkpt lat="48.78103" lon="2.08608">
        <ele>133.5390625</ele>
        <time>2010-01-01T00:00:00Z</time>
      </trkpt>
      <trkpt lat="48.78082" lon="2.08635">
        <ele>135.42578125</ele>
        <time>2010-01-01T00:00:00Z</time>
      </trkpt>
      <trkpt lat="48.78064" lon="2.08667">
        <ele>137.1875</ele>
        <time>2010-01-01T00:00:00Z</time>
      </trkpt>
      <trkpt lat="48.78052" lon="2.08698">
        <ele>137.984375</ele>
        <time>2010-01-01T00:00:00Z</time>
      </trkpt>
      <trkpt lat="48.7805" lon="2.08709">
        <ele>137.9921875</ele>
        <time>2010-01-01T00:00:00Z</time>
      </trkpt>
      <trkpt lat="48.7805" lon="2.08721">
        <ele>137.90234375</ele>
        <time>2010-01-01T00:00:00Z</time>
      </trkpt>
      <trkpt lat="48.78053" lon="2.0873">
        <ele>137.390625</ele>
        <time>2010-01-01T00:00:00Z</time>
      </trkpt>
      <trkpt lat="48.78057" lon="2.08735">
        <ele>136.765625</ele>
        <time>2010-01-01T00:00:00Z</time>
      </trkpt>
      <trkpt lat="48.78069" lon="2.08747">
        <ele>134.828125</ele>
        <time>2010-01-01T00:00:00Z</time>
      </trkpt>
      <trkpt lat="48.78076" lon="2.08754">
        <ele>133.87109375</ele>
        <time>2010-01-01T00:00:00Z</time>
      </trkpt>
      <trkpt lat="48.78083" lon="2.08763">
        <ele>132.9921875</ele>
        <time>2010-01-01T00:00:00Z</time>
      </trkpt>
      <trkpt lat="48.78086" lon="2.08775">
        <ele>132.1875</ele>
        <time>2010-01-01T00:00:00Z</time>
      </trkpt>
      <trkpt lat="48.78089" lon="2.08787">
        <ele>131.4609375</ele>
        <time>2010-01-01T00:00:00Z</time>
      </trkpt>
      <trkpt lat="48.78101" lon="2.08863">
        <ele>128.09765625</ele>
        <time>2010-01-01T00:00:00Z</time>
      </trkpt>
      <trkpt lat="48.78107" lon="2.08883">
        <ele>127.078125</ele>
        <time>2010-01-01T00:00:00Z</time>
      </trkpt>
      <trkpt lat="48.78109" lon="2.08899">
        <ele>126.28515625</ele>
        <time>2010-01-01T00:00:00Z</time>
      </trkpt>
      <trkpt lat="48.78133" lon="2.08918">
        <ele>125.2109375</ele>
        <time>2010-01-01T00:00:00Z</time>
      </trkpt>
      <trkpt lat="48.7813" lon="2.08921">
        <ele>125.3203125</ele>
        <time>2010-01-01T00:00:00Z</time>
      </trkpt>
      <trkpt lat="48.7813" lon="2.08921">
        <ele>125.3203125</ele>
        <time>2010-01-01T00:00:00Z</time>
      </trkpt>
      <trkpt lat="48.7813" lon="2.08921">
        <ele>125.3203125</ele>
        <time>2010-01-01T00:00:00Z</time>
      </trkpt>
      <trkpt lat="48.78107" lon="2.08942">
        <ele>125.65234375</ele>
        <time>2010-01-01T00:00:00Z</time>
      </trkpt>
      <trkpt lat="48.78079" lon="2.08965">
        <ele>125.66796875</ele>
        <time>2010-01-01T00:00:00Z</time>
      </trkpt>
      <trkpt lat="48.78062" lon="2.08984">
        <ele>125.53125</ele>
        <time>2010-01-01T00:00:00Z</time>
      </trkpt>
      <trkpt lat="48.78032" lon="2.09021">
        <ele>126.359375</ele>
        <time>2010-01-01T00:00:00Z</time>
      </trkpt>
      <trkpt lat="48.78009" lon="2.09055">
        <ele>126.79296875</ele>
        <time>2010-01-01T00:00:00Z</time>
      </trkpt>
      <trkpt lat="48.78" lon="2.09069">
        <ele>126.94140625</ele>
        <time>2010-01-01T00:00:00Z</time>
      </trkpt>
      <trkpt lat="48.77993" lon="2.09084">
        <ele>127</ele>
        <time>2010-01-01T00:00:00Z</time>
      </trkpt>
      <trkpt lat="48.77976" lon="2.09122">
        <ele>126.7578125</ele>
        <time>2010-01-01T00:00:00Z</time>
      </trkpt>
      <trkpt lat="48.77967" lon="2.09148">
        <ele>126.29296875</ele>
        <time>2010-01-01T00:00:00Z</time>
      </trkpt>
      <trkpt lat="48.77947" lon="2.09192">
        <ele>125.4140625</ele>
        <time>2010-01-01T00:00:00Z</time>
      </trkpt>
      <trkpt lat="48.77932" lon="2.09202">
        <ele>125.98046875</ele>
        <time>2010-01-01T00:00:00Z</time>
      </trkpt>
      <trkpt lat="48.7791" lon="2.09221">
        <ele>128.171875</ele>
        <time>2010-01-01T00:00:00Z</time>
      </trkpt>
      <trkpt lat="48.77907" lon="2.09239">
        <ele>129.390625</ele>
        <time>2010-01-01T00:00:00Z</time>
      </trkpt>
      <trkpt lat="48.7791" lon="2.09284">
        <ele>132.0546875</ele>
        <time>2010-01-01T00:00:00Z</time>
      </trkpt>
      <trkpt lat="48.77908" lon="2.09324">
        <ele>136</ele>
      </trkpt>
      <trkpt lat="48.77915" lon="2.09366">
        <ele>138.7</ele>
      </trkpt>
      <trkpt lat="48.77929" lon="2.0943">
        <ele>130.046875</ele>
        <time>2010-01-01T00:00:00Z</time>
      </trkpt>
      <trkpt lat="48.77936" lon="2.0948">
        <ele>127.7421875</ele>
        <time>2010-01-01T00:00:00Z</time>
      </trkpt>
      <trkpt lat="48.77943" lon="2.09513">
        <ele>126.9921875</ele>
        <time>2010-01-01T00:00:00Z</time>
      </trkpt>
      <trkpt lat="48.77953" lon="2.09529">
        <ele>126.25</ele>
        <time>2010-01-01T00:00:00Z</time>
      </trkpt>
      <trkpt lat="48.77939" lon="2.09537">
        <ele>130</ele>
      </trkpt>
      <trkpt lat="48.77943" lon="2.09544">
        <ele>125.875</ele>
        <time>2010-01-01T00:00:00Z</time>
      </trkpt>
      <trkpt lat="48.7794" lon="2.09547">
        <ele>125.875</ele>
        <time>2010-01-01T00:00:00Z</time>
      </trkpt>
      <trkpt lat="48.77939" lon="2.09556">
        <ele>125.58984375</ele>
        <time>2010-01-01T00:00:00Z</time>
      </trkpt>
      <trkpt lat="48.77936" lon="2.0956">
        <ele>125.55078125</ele>
        <time>2010-01-01T00:00:00Z</time>
      </trkpt>
      <trkpt lat="48.77932" lon="2.09562">
        <ele>125.625</ele>
        <time>2010-01-01T00:00:00Z</time>
      </trkpt>
      <trkpt lat="48.77927" lon="2.09561">
        <ele>125.83984375</ele>
        <time>2010-01-01T00:00:00Z</time>
      </trkpt>
      <trkpt lat="48.77924" lon="2.09559">
        <ele>126.01953125</ele>
        <time>2010-01-01T00:00:00Z</time>
      </trkpt>
      <trkpt lat="48.77924" lon="2.09557">
        <ele>126.09375</ele>
        <time>2010-01-01T00:00:00Z</time>
      </trkpt>
      <trkpt lat="48.77924" lon="2.09557">
        <ele>126.09375</ele>
        <time>2010-01-01T00:00:00Z</time>
      </trkpt>
      <trkpt lat="48.77924" lon="2.09557">
        <ele>126.09375</ele>
        <time>2010-01-01T00:00:00Z</time>
      </trkpt>
      <trkpt lat="48.77924" lon="2.09559">
        <ele>126.01953125</ele>
        <time>2010-01-01T00:00:00Z</time>
      </trkpt>
      <trkpt lat="48.77909" lon="2.09565">
        <ele>130</ele>
      </trkpt>
      <trkpt lat="48.77899" lon="2.09578">
        <ele>126.23828125</ele>
        <time>2010-01-01T00:00:00Z</time>
      </trkpt>
      <trkpt lat="48.77893" lon="2.09565">
        <ele>126.921875</ele>
        <time>2010-01-01T00:00:00Z</time>
      </trkpt>
      <trkpt lat="48.7789" lon="2.09561">
        <ele>127.171875</ele>
        <time>2010-01-01T00:00:00Z</time>
      </trkpt>
      <trkpt lat="48.77886" lon="2.09558">
        <ele>127.4609375</ele>
        <time>2010-01-01T00:00:00Z</time>
      </trkpt>
      <trkpt lat="48.77878" lon="2.09557">
        <ele>127.890625</ele>
        <time>2010-01-01T00:00:00Z</time>
      </trkpt>
      <trkpt lat="48.77867" lon="2.09556">
        <ele>128.48828125</ele>
        <time>2010-01-01T00:00:00Z</time>
      </trkpt>
      <trkpt lat="48.77847" lon="2.09553">
        <ele>129.50390625</ele>
        <time>2010-01-01T00:00:00Z</time>
      </trkpt>
      <trkpt lat="48.77828" lon="2.0955">
        <ele>130.52734375</ele>
        <time>2010-01-01T00:00:00Z</time>
      </trkpt>
      <trkpt lat="48.77823" lon="2.09551">
        <ele>130.73046875</ele>
        <time>2010-01-01T00:00:00Z</time>
      </trkpt>
      <trkpt lat="48.77819" lon="2.09553">
        <ele>130.7734375</ele>
        <time>2010-01-01T00:00:00Z</time>
      </trkpt>
      <trkpt lat="48.77813" lon="2.09557">
        <ele>130.703125</ele>
        <time>2010-01-01T00:00:00Z</time>
      </trkpt>
      <trkpt lat="48.77809" lon="2.09563">
        <ele>130.2734375</ele>
        <time>2010-01-01T00:00:00Z</time>
      </trkpt>
      <trkpt lat="48.77809" lon="2.09563">
        <ele>130.2734375</ele>
        <time>2010-01-01T00:00:00Z</time>
      </trkpt>
      <trkpt lat="48.77809" lon="2.09564">
        <ele>130.171875</ele>
        <time>2010-01-01T00:00:00Z</time>
      </trkpt>
      <trkpt lat="48.77804" lon="2.09571">
        <ele>129.62890625</ele>
        <time>2010-01-01T00:00:00Z</time>
      </trkpt>
      <trkpt lat="48.77791" lon="2.0962">
        <ele>126.12109375</ele>
        <time>2010-01-01T00:00:00Z</time>
      </trkpt>
      <trkpt lat="48.77787" lon="2.09641">
        <ele>124.65234375</ele>
        <time>2010-01-01T00:00:00Z</time>
      </trkpt>
      <trkpt lat="48.77787" lon="2.09653">
        <ele>123.89453125</ele>
        <time>2010-01-01T00:00:00Z</time>
      </trkpt>
      <trkpt lat="48.77789" lon="2.09663">
        <ele>123.53515625</ele>
        <time>2010-01-01T00:00:00Z</time>
      </trkpt>
      <trkpt lat="48.77802" lon="2.0967">
        <ele>121.8</ele>
      </trkpt>
      <trkpt lat="48.77779" lon="2.09683">
        <ele>122.8046875</ele>
        <time>2010-01-01T00:00:00Z</time>
      </trkpt>
      <trkpt lat="48.77757" lon="2.09697">
        <ele>123.06640625</ele>
        <time>2010-01-01T00:00:00Z</time>
      </trkpt>
      <trkpt lat="48.77739" lon="2.09709">
        <ele>123.03515625</ele>
        <time>2010-01-01T00:00:00Z</time>
      </trkpt>
      <trkpt lat="48.7772" lon="2.09721">
        <ele>122.5625</ele>
        <time>2010-01-01T00:00:00Z</time>
      </trkpt>
      <trkpt lat="48.77712" lon="2.09727">
        <ele>122.73046875</ele>
        <time>2010-01-01T00:00:00Z</time>
      </trkpt>
      <trkpt lat="48.7768" lon="2.09748">
        <ele>123.4765625</ele>
        <time>2010-01-01T00:00:00Z</time>
      </trkpt>
      <trkpt lat="48.77673" lon="2.09754">
        <ele>123.33203125</ele>
        <time>2010-01-01T00:00:00Z</time>
      </trkpt>
      <trkpt lat="48.77668" lon="2.0976">
        <ele>123.04296875</ele>
        <time>2010-01-01T00:00:00Z</time>
      </trkpt>
      <trkpt lat="48.7766" lon="2.09772">
        <ele>122.8671875</ele>
        <time>2010-01-01T00:00:00Z</time>
      </trkpt>
      <trkpt lat="48.77655" lon="2.09781">
        <ele>122.546875</ele>
        <time>2010-01-01T00:00:00Z</time>
      </trkpt>
      <trkpt lat="48.77641" lon="2.0981">
        <ele>121.39453125</ele>
        <time>2010-01-01T00:00:00Z</time>
      </trkpt>
      <trkpt lat="48.77588" lon="2.09923">
        <ele>117.8828125</ele>
        <time>2010-01-01T00:00:00Z</time>
      </trkpt>
      <trkpt lat="48.77571" lon="2.09959">
        <ele>118.2421875</ele>
        <time>2010-01-01T00:00:00Z</time>
      </trkpt>
      <trkpt lat="48.77564" lon="2.09973">
        <ele>118.4921875</ele>
        <time>2010-01-01T00:00:00Z</time>
      </trkpt>
      <trkpt lat="48.77557" lon="2.09982">
        <ele>118.92578125</ele>
        <time>2010-01-01T00:00:00Z</time>
      </trkpt>
      <trkpt lat="48.77554" lon="2.09987">
        <ele>119.13671875</ele>
        <time>2010-01-01T00:00:00Z</time>
      </trkpt>
      <trkpt lat="48.77544" lon="2.10003">
        <ele>120.00390625</ele>
        <time>2010-01-01T00:00:00Z</time>
      </trkpt>
      <trkpt lat="48.7754" lon="2.10012">
        <ele>120.2578125</ele>
        <time>2010-01-01T00:00:00Z</time>
      </trkpt>
      <trkpt lat="48.77535" lon="2.10029">
        <ele>120.36328125</ele>
        <time>2010-01-01T00:00:00Z</time>
      </trkpt>
      <trkpt lat="48.77529" lon="2.1006">
        <ele>120.11328125</ele>
        <time>2010-01-01T00:00:00Z</time>
      </trkpt>
      <trkpt lat="48.77515" lon="2.10103">
        <ele>120.10546875</ele>
        <time>2010-01-01T00:00:00Z</time>
      </trkpt>
      <trkpt lat="48.77512" lon="2.10125">
        <ele>119.63671875</ele>
        <time>2010-01-01T00:00:00Z</time>
      </trkpt>
      <trkpt lat="48.77512" lon="2.10134">
        <ele>119.3125</ele>
        <time>2010-01-01T00:00:00Z</time>
      </trkpt>
      <trkpt lat="48.77512" lon="2.10148">
        <ele>118.80859375</ele>
        <time>2010-01-01T00:00:00Z</time>
      </trkpt>
      <trkpt lat="48.7751" lon="2.10172">
        <ele>116.4</ele>
        <time>2010-01-01T00:00:00Z</time>
      </trkpt>
      <trkpt lat="48.7751" lon="2.10188">
        <ele>116.5</ele>
        <time>2010-01-01T00:00:00Z</time>
      </trkpt>
      <trkpt lat="48.77506" lon="2.10236">
        <ele>119.9</ele>
      </trkpt>
      <trkpt lat="48.77478" lon="2.10382">
        <ele>116.44140625</ele>
        <time>2010-01-01T00:00:00Z</time>
      </trkpt>
      <trkpt lat="48.77467" lon="2.10416">
        <ele>115.61328125</ele>
        <time>2010-01-01T00:00:00Z</time>
      </trkpt>
      <trkpt lat="48.7745" lon="2.10469">
        <ele>115.72265625</ele>
        <time>2010-01-01T00:00:00Z</time>
      </trkpt>
      <trkpt lat="48.77434" lon="2.1052">
        <ele>115.4453125</ele>
        <time>2010-01-01T00:00:00Z</time>
      </trkpt>
      <trkpt lat="48.7742" lon="2.10561">
        <ele>114.9765625</ele>
        <time>2010-01-01T00:00:00Z</time>
      </trkpt>
      <trkpt lat="48.77407" lon="2.10606">
        <ele>115.29296875</ele>
        <time>2010-01-01T00:00:00Z</time>
      </trkpt>
      <trkpt lat="48.77383" lon="2.10684">
        <ele>116.14453125</ele>
        <time>2010-01-01T00:00:00Z</time>
      </trkpt>
      <trkpt lat="48.77375" lon="2.10713">
        <ele>118.02734375</ele>
        <time>2010-01-01T00:00:00Z</time>
      </trkpt>
      <trkpt lat="48.77373" lon="2.10743">
        <ele>120.125</ele>
        <time>2010-01-01T00:00:00Z</time>
      </trkpt>
      <trkpt lat="48.77373" lon="2.10757">
        <ele>120.92578125</ele>
        <time>2010-01-01T00:00:00Z</time>
      </trkpt>
      <trkpt lat="48.77375" lon="2.10772">
        <ele>121.6640625</ele>
        <time>2010-01-01T00:00:00Z</time>
      </trkpt>
      <trkpt lat="48.77378" lon="2.10793">
        <ele>122.6171875</ele>
        <time>2010-01-01T00:00:00Z</time>
      </trkpt>
      <trkpt lat="48.77379" lon="2.10814">
        <ele>123.83984375</ele>
        <time>2010-01-01T00:00:00Z</time>
      </trkpt>
      <trkpt lat="48.77383" lon="2.10832">
        <ele>124.55859375</ele>
        <time>2010-01-01T00:00:00Z</time>
      </trkpt>
      <trkpt lat="48.77392" lon="2.10878">
        <ele>124.91796875</ele>
        <time>2010-01-01T00:00:00Z</time>
      </trkpt>
      <trkpt lat="48.77396" lon="2.10903">
        <ele>126.11328125</ele>
        <time>2010-01-01T00:00:00Z</time>
      </trkpt>
      <trkpt lat="48.77407" lon="2.10953">
        <ele>127.42578125</ele>
        <time>2010-01-01T00:00:00Z</time>
      </trkpt>
      <trkpt lat="48.77413" lon="2.10979">
        <ele>114</ele>
      </trkpt>
      <trkpt lat="48.77427" lon="2.11008">
        <ele>113.9</ele>
        <time>2010-01-01T00:00:00Z</time>
      </trkpt>
      <trkpt lat="48.77437" lon="2.11037">
        <ele>128.3984375</ele>
        <time>2010-01-01T00:00:00Z</time>
      </trkpt>
      <trkpt lat="48.77449" lon="2.11052">
        <ele>126.46484375</ele>
        <time>2010-01-01T00:00:00Z</time>
      </trkpt>
      <trkpt lat="48.7746" lon="2.11059">
        <ele>124.44921875</ele>
        <time>2010-01-01T00:00:00Z</time>
      </trkpt>
      <trkpt lat="48.77459" lon="2.11061">
        <ele>124.9140625</ele>
        <time>2010-01-01T00:00:00Z</time>
      </trkpt>
      <trkpt lat="48.77459" lon="2.11061">
        <ele>124.9140625</ele>
        <time>2010-01-01T00:00:00Z</time>
      </trkpt>
      <trkpt lat="48.7746" lon="2.11059">
        <ele>124.44921875</ele>
        <time>2010-01-01T00:00:00Z</time>
      </trkpt>
      <trkpt lat="48.77503" lon="2.11051">
        <ele>110.5</ele>
      </trkpt>
      <trkpt lat="48.77558" lon="2.11083">
        <ele>109.7</ele>
        <time>2010-01-01T00:00:00Z</time>
      </trkpt>
      <trkpt lat="48.77579" lon="2.11122">
        <ele>110.3</ele>
      </trkpt>
      <trkpt lat="48.77591" lon="2.11174">
        <ele>110.2</ele>
      </trkpt>
      <trkpt lat="48.77598" lon="2.11335">
        <ele>109.4</ele>
        <time>2010-01-01T00:00:00Z</time>
      </trkpt>
      <trkpt lat="48.776" lon="2.11549">
        <ele>109.5</ele>
        <time>2010-01-01T00:00:00Z</time>
      </trkpt>
      <trkpt lat="48.77612" lon="2.11654">
        <ele>110</ele>
        <time>2010-01-01T00:00:00Z</time>
      </trkpt>
      <trkpt lat="48.77623" lon="2.11707">
        <ele>110.7</ele>
      </trkpt>
      <trkpt lat="48.77627" lon="2.11769">
        <ele>111.2</ele>
      </trkpt>
      <trkpt lat="48.77674" lon="2.11778">
        <ele>109.7</ele>
        <time>2010-01-01T00:00:00Z</time>
      </trkpt>
      <trkpt lat="48.77677" lon="2.11895">
        <ele>106.3</ele>
      </trkpt>
      <trkpt lat="48.77667" lon="2.11968">
        <ele>107</ele>
      </trkpt>
      <trkpt lat="48.77612" lon="2.12193">
        <ele>107.9</ele>
      </trkpt>
      <trkpt lat="48.77531" lon="2.1241">
        <ele>107.9</ele>
      </trkpt>
      <trkpt lat="48.77483" lon="2.12601">
        <ele>106.6</ele>
      </trkpt>
    </trkseg>
  </trk>
</gpx>